[Iaude] MPEC F83: 2024 FP2 [a=0.97,e=0.25,i=30.8,H=20.9]

mpec at cfa.harvard.edu mpec at cfa.harvard.edu
Sun Mar 24 21:58:02 EDT 2024


M.P.E.C. 2024-F83                                Issued 2024 March 25, 01:56 UT

     The Minor Planet Electronic Circulars contain information on unusual
         minor planets, routine data on comets and natural satellites,
         and occasional editorial announcements.  They are published
    on behalf of Division F of the International Astronomical Union by the
          Minor Planet Center, Smithsonian Astrophysical Observatory,
                          Cambridge, MA 02138, U.S.A.
			  
             Prepared using the Tamkin Foundation Computer Network

                              MPC at CFA.HARVARD.EDU
            URL https://www.minorplanetcenter.net/    ISSN 1523-6714

                                    2024 FP2                                    


Observations:
     K24F02P*1C2024 03 21.32911914 52 15.956+51 23 19.10         20.42GVEF083G96
     K24F02P 1C2024 03 21.33441014 52 14.221+51 23 23.42         20.29GVEF083G96
     K24F02P 1C2024 03 21.33969514 52 12.403+51 23 28.97         20.61GVEF083G96
     K24F02P 1C2024 03 21.34499814 52 10.560+51 23 34.55         20.62GVEF083G96
     K24F02P 1C2024 03 21.46128014 51 30.438+51 25 17.51         20.98GVEF083G96
     K24F02P 1C2024 03 21.46252414 51 30.056+51 25 17.80         20.70GVEF083G96
     K24F02P 1C2024 03 21.46375514 51 29.603+51 25 19.31         20.66GVEF083G96
     K24F02P KC2024 03 22.27630514 46 54.860+51 36 31.00         21.5 GVEF083H01
     K24F02P KC2024 03 22.28306414 46 52.438+51 36 37.10         21.8 GVEF083H01
     K24F02P KC2024 03 22.29150414 46 49.399+51 36 44.40         20.9 GVEF083H01
     K24F02P KC2024 03 22.29879014 46 46.775+51 36 50.81         21.2 GVEF083H01
     K24F02P KC2024 03 22.30946514 46 42.970+51 37 00.80         21.07GVEF083I52
     K24F02P KC2024 03 22.31159314 46 42.360+51 37 02.10         20.72GVEF083I52
     K24F02P KB2024 03 22.87336814 43 22.797+51 44 04.81         19.5 GXEF083D31
     K24F02P KB2024 03 22.95424814 42 52.972+51 45 13.02         19.1 GXEF083D31
     K24F02P KB2024 03 22.99766214 42 36.649+51 45 46.17         19.4 GXEF083D31
     K24F02P KB2024 03 25.05268414 29 22.94 +52 07 33.2          20.0 GXEF083I93
     K24F02P KB2024 03 25.06014014 29 19.75 +52 07 37.8          20.4 GXEF083I93
     K24F02P KB2024 03 25.06738714 29 16.69 +52 07 40.9          19.9 GXEF083I93

Observer details:
D31 Osservatorio Aldebaran, Rivalba.  Observer M. Stefanini.  Measurers M.
    Stefanini, M. Stefanini.  0.36-m f/6.6 Schmidt-Cassegrain + CMO.
G96 Mt. Lemmon Survey.  Observer G. J. Leonard.  Measurers T. Beuden, V. F.
    Carvajal, D. Fay, J. B. Fazekas, D. C. Fuls, A. R. Gibbs, A. D. Grauer, H.
    Groeller, J. K. Hogan, R. A. Kowalski, S. M. Larson, G. J. Leonard, D.
    Rankin, R. L. Seaman, F. C. Shelly, K. W. Wierzchos, G. J. Leonard.  1.5-m
    reflector + 10K CCD.
H01 Magdalena Ridge Observatory, Socorro.  Observers W. H. Ryan, E. V. Ryan.
    Measurers W. H. Ryan, W. H. Ryan, E. V. Ryan.  2.4-m f/8.9 Ritchey-
    Chretien + CCD.
I52 Steward Observatory, Mt. Lemmon Station.  Observer D. Rankin.  Measurers
    T. Beuden, V. F. Carvajal, D. Fay, J. B. Fazekas, D. C. Fuls, A. R. Gibbs,
    A. D. Grauer, H. Groeller, J. K. Hogan, R. A. Kowalski, S. M. Larson, G.
    J. Leonard, D. Rankin, R. L. Seaman, F. C. Shelly, K. W. Wierzchos, D.
    Rankin.  1.0-m prime focus + CCD.
I93 St Pardon de Conques.  Observer F. Losse.  Measurers F. Losse, F. Losse.
    0.40-m f/3.7 reflector + CCD.

Orbital elements:
2024 FP2                                                 Earth MOID = 0.0847 AU
Epoch 2024 Mar. 31.0 TT = JDT 2460400.5                 MPC                     
M 215.31752              (2000.0)            P               Q                  
n   1.03463963     Peri.  313.88660     +0.90587924     +0.34417917             
a   0.9681515      Node    28.83168     -0.04419225     +0.65640589             
e   0.2518292      Incl.   30.78620     -0.42122423     +0.67132109             
P   0.95           H   20.96          G   0.15           U   8                  
Residuals in seconds of arc
240321 G96  0.6-  0.2-    240322 H01  0.0   0.2-    240322 D31  0.5-  0.8+
240321 G96  0.0   0.8-    240322 H01  0.1+  0.1-    240322 D31  1.4-  0.7-
240321 G96  0.1-  0.2-    240322 H01  0.0   0.2-    240325 I93  0.4+  0.1-
240321 G96  0.3-  0.4+    240322 H01  0.0   0.1-    240325 I93  0.1-  0.5+
240321 G96  0.1-  0.3+    240322 I52  0.8-  0.7+    240325 I93  0.1-  0.3-
240321 G96  0.3+  0.5-    240322 I52  0.7+  0.1+
240321 G96  0.1+  0.0     240322 D31  0.3-  0.6-

Ephemeris:
2024 FP2                 a,e,i = 0.97, 0.25, 31                  q = 0.7243
Date    TT    R. A. (2000) Decl.     Delta      r    Elong.  Phase     V
2024 02 24    15 54 19.8 +43 39 10   0.5187  1.2119   102.4    52.9    21.9
...
2024 03 10    15 35 40.3 +47 58 17   0.4215  1.2076   110.6    50.4    21.4
...
2024 03 18    15 08 44.6 +50 29 15   0.3698  1.2006   115.3    48.6    21.0
...
2024 03 24    14 36 20.3 +51 57 18   0.3333  1.1933   118.7    47.1    20.7
2024 03 25    14 29 44.1 +52 07 02   0.3275  1.1919   119.2    46.9    20.7
2024 03 26    14 22 46.5 +52 14 46   0.3219  1.1905   119.8    46.7    20.6
...
2024 04 01    13 33 55.7 +52 02 37   0.2908  1.1808   122.4    45.6    20.4
...
2024 04 09    12 17 44.5 +47 51 22   0.2603  1.1651   123.3    45.9    20.1
...
2024 04 24    10 26 00.5 +27 36 37   0.2509  1.1274   112.9    55.2    20.2

A. U. Tomatic                (C) Copyright 2024 MPC           M.P.E.C. 2024-F83





More information about the Iaude mailing list